Accueil
METAR-TAF:

METAR-TAF

Aéroports :

Le Luc, France

latitude: 43-23N, longitude: 006-23E, altitude: 80 m

Observation

Le bulletin a été fait il y a 33 minutes, à 02:30 UTC
Vent 7 kt de ouest
Température 21°C
Humidité 64%
Pression 1014 hPa
Visibilité 10 km ou plus

METAR: LFMC 170230Z AUTO 26007KT 9999 ////// 21/14 Q1014

Heure: 05:03 (03:03 UTC)


TAF: absent

Observations et prévisions météorologiques de plus de 4000 aéroports (messages METAR et TAF).

Les stations disponibles sont représentées par des disques jaunes et rouges sur la carte.

Passer la souris dessus pour voir le nom de la station.

Cliquer dessus pour voir les observations et prévisions météorologiques.

Pour changer de carte: cliquez sur les boutons verts avec une croix noire pour zoomer, sur le bouton vert avec un tiret pour effectuer un zoom arrière, ou sur les flèches vertes pour les cartes adjacentes.


METAR-TAF: